Location: Bruck
(48.7364°N, 10.9425°E)
Time: 11:35:59
(UTC+00:00)

Daily predictions for brighter satellites

Satellite Brightness Start Highest point End
(mag) Time Altitude Azimuth Time Altitude Azimuth Time Altitude Azimuth
Cosmos 2278 3.9 18:58:26 10° NNW 19:04:09 66° ENE 19:09:48 10° SE
Cosmos 2322 Rocket 3.8 19:00:34 10° N 19:04:58 22° NE 19:09:22 10° E
Cosmos 1633 Rocket 3.9 19:01:35 10° SSE 19:05:29 31° E 19:09:24 10° NNE
MOS 1 Rocket 4.0 19:02:30 10° N 19:07:58 74° WNW 19:13:14 10° SSW
Cosmos 1140 Rocket 3.6 19:04:39 10° S 19:09:44 53° ESE 19:14:51 10° NNE
USA 276 2.4 19:07:33 10° W 19:10:43 67° N 19:13:53 10° E
Cosmos 1818 4.5 19:06:04 10° NW 19:11:17 48° WSW 19:16:28 10° SSE
MetOp-A 4.2 19:06:55 10° SSE 19:12:16 89° E 19:17:40 10° NNW
X-37B 1.2 19:11:56 10° WSW 19:14:57 41° S 19:17:58 10° ESE
Cosmos 2360 Rocket 4.1 19:11:37 10° N 19:15:17 17° NE 19:18:57 10° ENE
ATLAS 5 CENTAUR R/B 4.0 19:11:18 10° WNW 19:16:20 30° WSW 19:22:00 10° S
Cosmos 921 Rocket 3.8 19:13:06 10° N 19:17:00 35° ENE 19:20:50 10° SE
FALCON 9 DEB 3.1 19:15:28 10° WSW 19:18:58 80° SSE 19:22:29 10° ENE
Cosmos 1707 Rocket 3.5 19:14:52 10° N 19:19:13 76° E 19:23:33 10° SSE
USA 186 3.6 19:21:13 10° SSW 19:22:58 20° W 19:24:44 10° NW
Genesis I 3.4 19:19:38 10° NW 19:23:30 69° SW 19:27:20 10° SSE
OBJECT-B 0.8 19:21:36 10° SSE 19:24:53 89° WSW 19:28:12 10° NNW
Cosmos 1980 Rocket 2.2 19:19:26 10° NNW 19:25:09 83° ENE 19:30:48 10° SSE
CZ-2C R/B 3.8 19:24:01 10° NNE 19:28:34 59° ESE 19:33:00 10° S
Intercosmos 25 3.4 19:25:50 10° NNW 19:29:50 68° W 19:33:01 10° S
Cosmos 1470 Rocket 4.3 19:29:15 10° SSE 19:33:13 34° E 19:37:10 10° NNE
Cosmos 1833 Rocket 3.1 19:31:23 10° SW 19:36:58 70° WNW 19:42:38 10° NNE
NOSS 3-2 (A) 3.5 19:31:38 10° SSW 19:37:07 51° ESE 19:43:20 10° NE
Meteor 1-4 Rocket 2.4 19:34:10 10° NNW 19:37:39 90° SSW 19:41:07 10° S
Cosmos 1184 Rocket 3.1 19:34:37 10° S 19:37:46 44° E 19:40:57 10° NNE
SJ-6B 4.4 19:34:03 10° SSW 19:37:47 36° W 19:41:29 10° NNW
Cosmos 1697 Rocket 3.6 19:32:59 10° NW 19:38:21 46° WSW 19:43:39 10° S
Sich 1 3.5 19:35:06 10° SSW 19:39:31 68° WNW 19:43:58 10° N
USA 267 3.8 19:33:50 10° ENE 19:39:43 34° SE 19:45:32 10° SSW
H-2A R/B 4.5 19:38:23 10° SW 19:42:12 21° W 19:45:59 10° NW
SPOT 5 4.2 19:40:40 12° ESE 19:43:23 21° ENE 19:46:40 10° NNE
Cosmos 405 Rocket 3.6 19:42:21 14° SSE 19:44:55 29° E 19:48:12 10° NNE
SL-27 R/B 4.3 19:46:33 13° E 19:46:33 13° E 19:48:01 10° ENE
NOSS 3-2 (C) 3.8 19:41:20 10° S 19:46:32 38° ESE 19:52:23 10° NE
Cosmos 1862 Rocket 3.5 19:42:12 10° N 19:46:41 73° E 19:50:56 11° SSE
Cosmos 1437 Rocket 3.9 19:44:45 10° N 19:48:00 26° ENE 19:49:58 17° ESE
SPOT 1/Viking Rocket 4.1 19:45:04 14° SE 19:49:10 43° ENE 19:54:06 10° N
Cosmos 1934 Rocket 4.0 19:44:25 10° S 19:50:47 80° E 19:57:11 10° N
Cosmos 2333 Rocket 4.4 19:49:03 10° N 19:52:30 16° NNE 19:55:55 10° ENE
Landsat 7 4.1 19:48:45 15° SE 19:52:33 52° ENE 19:57:12 10° N
Resurs 01 Rocket 1.7 19:48:12 10° S 19:52:38 78° WSW 19:57:06 10° NNW
USA 32 4.1 19:48:35 10° SSE 19:53:41 58° E 19:58:49 10° NNE
Cosmos 676 Rocket 4.0 19:53:26 10° SSW 19:58:46 86° ESE 20:04:09 10° NNE
ERS-1 Rocket 3.8 19:56:13 17° ESE 19:59:27 36° ENE 20:04:01 10° N
GP-B 3.1 19:56:29 10° N 20:00:55 67° E 20:04:54 13° S
Okean 1 3.6 19:59:46 10° N 20:03:45 51° ENE 20:06:08 22° SE
Cosmos 841 Rocket 4.4 19:59:28 10° N 20:04:18 36° ENE 20:07:29 19° ESE
Meteor 1-19 Rocket 4.4 19:59:15 10° N 20:04:34 54° ENE 20:08:20 19° SE
CARTOSAT-1 4.3 20:06:56 22° ESE 20:09:11 38° ENE 20:13:12 10° N
BREEZE-M DEB (TANK) 1.5 20:08:39 10° W 20:11:14 79° N 20:11:49 39° E
Cosmos 468 Rocket 4.0 20:06:34 10° NNW 20:11:55 79° ENE 20:15:29 21° SSE
Cosmos 1867 3.9 20:06:52 10° SW 20:12:17 70° NW 20:17:46 10° NE
Cosmos 1933 Rocket 3.6 20:10:14 14° S 20:13:52 62° E 20:18:17 10° NNE
USA 234 3.5 20:10:46 15° ESE 20:16:18 68° NNE 20:22:47 10° NW
SL-4 R/B 2.3 20:12:44 10° W 20:16:41 61° N 20:20:19 10° ENE
ATLAS 3B R/B 3.5 20:14:38 20° SE 20:17:02 25° ESE 20:22:13 10° ENE
IGS 5A 3.4 20:15:48 21° SSE 20:18:32 89° W 20:22:42 10° NNW
Meteor 2-4 Rocket 4.1 20:15:57 10° N 20:21:24 47° ENE 20:24:18 25° SE
Cosmos 1869 Rocket 4.3 20:23:53 28° SE 20:25:11 34° E 20:29:14 10° NNE
Iridium 4 Rocket 4.2 20:25:27 23° E 20:26:12 24° E 20:29:35 10° NNE
Meteor 1-14 Rocket 4.4 20:23:18 16° S 20:28:02 62° E 20:33:56 10° NNE
Spot 2 Rocket 3.6 20:25:35 19° S 20:29:16 77° WSW 20:34:24 10° NNW
SL-16 R/B 2.2 20:25:19 10° NNW 20:31:02 84° ENE 20:34:14 27° SSE
CZ-4B DEB 4.4 20:30:11 42° SE 20:31:04 63° ENE 20:34:23 10° N
Cosmos 2219 Rocket 4.0 20:26:58 10° N 20:31:19 22° NE 20:35:05 12° E
Cosmos 1741 Rocket 4.0 20:27:57 10° S 20:33:08 66° ESE 20:38:24 10° NNE
Okean 1-7 2.9 20:29:49 10° N 20:34:09 73° E 20:35:59 33° SSE
Cosmos 1703 Rocket 3.4 20:30:52 10° N 20:35:15 83° E 20:37:16 31° SSE
USA 238 DEB 3.8 20:29:36 10° SW 20:36:16 80° NW 20:43:16 10° NE
USA 238 3.8 20:29:43 10° SW 20:36:23 80° NW 20:43:22 10° NE
ATLAS 5 CENTAUR R/B 2.8 20:34:47 10° NNW 20:37:12 36° NE 20:39:34 21° E
Cosmos 1570 Rocket 4.1 20:34:54 10° NNW 20:40:13 67° ENE 20:42:42 32° SE
Meteor 1-18 Rocket 4.3 20:34:45 10° NNW 20:40:20 74° W 20:44:01 22° S
Cosmos 2082 Rocket 3.6 20:36:01 10° WSW 20:41:22 41° NW 20:46:43 10° NNE
Terra 2.1 20:40:06 33° SE 20:41:58 52° ENE 20:46:36 10° N
Lacrosse 5 2.2 20:38:36 10° WNW 20:43:33 53° SW 20:45:36 32° SSE
Cosmos 1238 Rocket 3.4 20:44:11 18° SW 20:46:02 37° WNW 20:48:52 10° N
CENTAUR R/B 2.5 20:40:44 10° SW 20:46:43 82° SE 20:53:53 10° NE
USA 276 2.0 20:43:55 10° WNW 20:47:05 66° SSW 20:47:07 66° SSW
Cosmos 1605 Rocket 4.4 20:41:18 10° SSW 20:47:21 62° WNW 20:53:24 10° N
Cosmos 2100 Rocket 4.0 20:45:27 27° SSE 20:48:46 60° E 20:54:48 10° NNE
Cosmos 2208 Rocket 4.1 20:43:45 10° NNW 20:49:00 66° ENE 20:51:06 36° SE
Cosmos 1763 Rocket 3.9 20:44:22 10° NNW 20:49:38 61° WSW 20:52:27 27° S
Cosmos 2322 Rocket 2.2 20:44:03 10° NNW 20:49:48 87° WSW 20:52:29 33° SSE
X-37B 2.1 20:48:24 10° WSW 20:50:24 26° SW 20:50:24 26° SW
Cosmos 2173 Rocket 4.0 20:52:59 29° SSE 20:56:07 63° E 21:02:10 10° NNE
FALCON 9 DEB 4.4 20:52:51 10° W 20:56:13 42° N 20:58:46 16° ENE
Cosmos 1733 Rocket 4.4 20:57:31 25° E 20:57:31 25° E 21:00:55 10° NNE
Cosmos 2237 4.3 20:51:55 10° NNW 20:57:39 69° ENE 20:59:59 36° SE
Cosmos 2084 Rocket 3.3 20:54:29 10° SW 20:58:42 90° E 21:03:01 10° NE
Cosmos 1500 3.0 20:59:53 63° SSE 21:00:19 73° E 21:04:05 10° NNE
Cosmos 2360 Rocket 2.3 20:54:45 10° NNW 21:00:26 66° ENE 21:02:39 37° SE
Cosmos 44 3.5 21:00:04 10° NW 21:04:57 66° SW 21:06:35 41° S
Cosmos 1725 Rocket 4.4 21:04:43 34° SE 21:06:41 44° E 21:12:38 10° NNE
Cosmos 1980 Rocket 4.4 21:04:49 10° WNW 21:08:25 17° W 21:11:59 10° SW
SAR-Lupe-2 3.5 21:06:03 10° NNE 21:09:39 80° WNW 21:10:12 61° SW
Cosmos 1666 3.4 21:11:57 39° ENE 21:11:57 39° ENE 21:14:58 10° NNE
Cosmos 1459 Rocket 3.9 21:08:09 30° S 21:11:32 81° E 21:17:56 10° N
Cosmos 2016 Rocket 4.1 21:13:22 38° SSE 21:15:47 62° E 21:22:04 10° NNE
Cosmos 1242 Rocket 3.5 21:13:31 10° N 21:16:36 35° ENE 21:16:36 35° ENE
COSMOS 2428 3.7 21:14:14 10° NNW 21:19:33 37° NE 21:21:52 27° E
Cosmos 44 Rocket 4.4 21:15:38 10° NNW 21:20:15 37° NE 21:22:15 26° E
Cosmos 2221 Rocket 3.5 21:16:21 10° N 21:20:51 76° E 21:21:32 62° SE
SL-27 R/B 3.5 21:20:03 32° WSW 21:21:02 41° WNW 21:24:13 10° N
Cosmos 2346 Rocket 4.4 21:15:02 10° N 21:21:07 76° E 21:23:12 43° SSE
SPOT 5 3.2 21:19:54 37° SSW 21:21:10 49° W 21:25:28 10° NNW
USA 267 3.2 21:16:37 10° NE 21:23:11 87° NNW 21:29:45 10° WSW
Cosmos 1437 Rocket 4.4 21:21:00 10° NW 21:24:12 26° W 21:25:21 22° WSW
Cosmos 540 Rocket 3.9 21:23:13 10° NNW 21:28:16 54° WSW 21:29:45 40° SSW
Lacrosse 4 Rocket 2.6 21:29:56 30° ENE 21:29:56 30° ENE 21:32:26 10° NE
Cosmos 2237 Rocket 4.1 21:24:53 10° N 21:29:12 22° NE 21:32:28 14° E
ERBS 4.1 21:26:44 10° NW 21:29:35 26° NNE 21:30:18 24° NE
Cosmos 1864 Rocket 4.5 21:27:52 44° SSE 21:29:48 66° E 21:36:01 10° NNE
Cosmos 1378 Rocket 4.3 21:29:02 10° N 21:33:13 39° ENE 21:33:20 39° ENE
Cosmos 1271 Rocket 4.0 21:32:28 10° N 21:35:26 30° ENE 21:35:26 30° ENE
NOSS 3-2 (C) 4.2 21:31:27 10° WSW 21:37:12 54° NW 21:43:52 10° NE
Cosmos 2333 Rocket 2.6 21:32:24 10° NNW 21:38:06 57° NE 21:39:44 42° ESE
ERS-1 Rocket 4.2 21:36:12 25° SW 21:38:14 34° W 21:42:50 10° NNW
Cosmos 2061 Rocket 3.9 21:37:27 42° S 21:39:46 88° E 21:46:00 10° N
Meteor 1-11 Rocket 3.7 21:42:34 48° S 21:44:17 90° E 21:50:07 10° NNE
Cosmos 841 Rocket 4.5 21:41:23 10° NW 21:46:12 38° WSW 21:47:34 32° SW
Cosmos 1066 Rocket 4.1 21:40:57 10° N 21:46:41 82° ENE 21:47:48 58° SSE
Cosmos 2233 Rocket 4.2 21:45:58 48° SE 21:47:20 58° E 21:53:32 10° NNE
Cosmos 1802 Rocket 4.2 21:45:24 32° SSW 21:48:30 70° W 21:54:51 10° N
Okean 3 4.3 21:48:24 10° NNW 21:52:27 41° W 21:52:58 39° WSW
COSMOS 2487 3.8 21:55:26 34° NNE 21:55:26 34° NNE 21:57:30 10° NNE
SL-4 R/B 2.5 21:52:49 10° WNW 21:55:57 50° NNW 21:55:57 50° NNW
Thor Agena Rocket 3.8 21:53:21 10° NNE 21:58:13 50° E 21:58:13 50° E
USA 234 3.5 21:58:07 44° S 21:59:29 51° SW 22:05:50 10° WNW
Spot 4 3.7 22:03:39 76° ESE 22:03:54 79° ENE 22:08:45 10° NNW
Iridium 4 Rocket 4.3 22:05:14 30° WSW 22:06:03 32° W 22:09:51 10° NNW
ATLAS 3B R/B 2.6 22:01:44 17° SW 22:07:02 80° NW 22:13:44 10° NE
Cosmos 2227 Rocket 4.4 22:09:36 12° E 22:09:36 12° E 22:10:50 10° ENE
Cosmos 1536 3.5 22:12:10 48° WNW 22:12:10 48° WNW 22:15:55 10° N
Meteor 1-23 Rocket 4.4 22:07:00 10° NNW 22:12:48 68° W 22:13:53 55° SSW
SL-16 R/B 4.1 22:10:48 10° WNW 22:14:23 17° W 22:16:06 15° WSW
Cosmos 2219 Rocket 2.0 22:10:20 10° NNW 22:16:04 89° WSW 22:16:47 70° SSE
Cosmos 1674 Rocket 3.9 22:14:07 10° NNW 22:18:08 58° WNW 22:18:08 58° WNW
NOSS 0 Rocket 4.2 22:12:43 10° NNW 22:18:56 60° NE 22:20:35 45° ESE
Terra 3.6 22:19:00 20° WSW 22:20:01 21° W 22:23:40 10° NW
Cosmos 2322 3.8 22:17:32 10° NW 22:23:05 58° WSW 22:23:34 56° SW
Cosmos 1842 4.3 22:20:34 10° N 22:23:29 40° NE 22:23:29 40° NE
EO 1 Del DPAF 4.3 22:21:12 10° NNE 22:23:43 39° NNE 22:23:43 39° NNE
Lacrosse 5 4.3 22:24:31 10° WSW 22:24:47 10° WSW 22:24:47 10° WSW
Tsikada Rocket 4.5 22:20:31 10° NNW 22:26:38 52° W 22:28:15 42° SW
MOS 1-B Rocket 4.0 22:22:50 10° N 22:28:26 66° WNW 22:29:54 48° SW
Cosmos 1503 Rocket 4.1 22:29:01 64° E 22:29:01 64° E 22:34:10 10° NNE
Okean 2 4.0 22:28:26 10° N 22:31:45 53° NNE 22:31:45 53° NNE
Cosmos 2322 Rocket 4.2 22:29:50 10° WNW 22:32:59 15° W 22:34:18 14° WSW
Geosat 4.1 22:33:13 64° WSW 22:33:13 64° WSW 22:38:11 10° NW
Meteor 2-11 Rocket 4.3 22:32:28 66° S 22:33:24 87° E 22:39:33 10° N
Cosmos 1486 Rocket 4.1 22:33:50 62° WSW 22:34:28 70° WNW 22:39:41 10° NNE
ALOS 2 2.8 22:35:05 69° N 22:35:05 69° N 22:39:00 10° NNW
Cosmos 489 Rocket 4.4 22:28:32 10° NNW 22:34:49 69° WSW 22:35:44 60° SSW
Cosmos 1733 Rocket 4.1 22:34:35 36° W 22:34:58 37° WNW 22:39:05 10° N
CENTAUR R/B 4.2 22:32:17 10° W 22:38:12 36° NNW 22:45:05 10° NE
Cosmos 1975 3.8 22:43:45 43° NNE 22:43:45 43° NNE 22:46:37 10° NNE
SL-16 R/B 3.9 22:38:29 10° NNW 22:43:20 28° NE 22:46:19 18° E
Cosmos 2360 Rocket 3.7 22:39:37 10° NW 22:43:55 23° W 22:44:24 22° WSW
Meteor 1-21 4.1 22:41:32 10° N 22:47:22 77° ENE 22:47:53 71° SE
SL-24 DEB 4.4 22:49:34 10° N 22:53:57 73° NNE 22:53:57 73° NNE
Cosmos 773 Rocket 3.9 22:49:38 10° NNW 22:54:48 73° ENE 22:54:49 73° ENE
Cosmos 968 Rocket 4.0 22:58:02 47° W 22:58:47 51° WNW 23:03:49 10° NNE
Helios 1A 3.7 22:59:36 51° NNE 22:59:36 51° NNE 23:03:06 10° N
Cosmos 1782 Rocket 4.0 23:00:31 58° N 23:00:31 58° N 23:04:04 10° N
Cosmos 2297 Rocket 3.0 23:02:01 37° E 23:02:01 37° E 23:06:36 10° NE
Cosmos 44 Rocket 4.2 22:57:08 10° NW 23:00:56 41° W 23:00:56 41° W
Cosmos 1743 4.3 23:03:24 31° NW 23:03:24 31° NW 23:06:21 10° N
Meteor 2-9 Rocket 4.0 23:03:15 81° S 23:03:34 88° E 23:09:22 10° NNE
COSMOS 2428 3.2 22:58:30 10° NW 23:03:51 46° WSW 23:03:51 46° WSW
Cosmos 1980 3.5 23:00:04 10° NNW 23:05:47 86° ENE 23:06:08 79° SE
USA 267 4.1 22:59:40 10° ENE 23:05:53 48° NNW 23:12:06 10° W
Cosmos 1538 Rocket 4.2 23:00:52 10° NNW 23:06:00 60° ENE 23:06:16 59° ENE
Cosmos 1908 Rocket 4.5 23:07:34 41° WNW 23:07:34 41° WNW 23:11:24 10° N
Lacrosse 4 Rocket 3.2 23:06:12 25° WNW 23:07:15 28° NW 23:10:54 10° NNE
Cosmos 1607 4.5 23:04:31 10° NW 23:10:53 57° NE 23:13:36 34° ESE
In-Cosmos 22 4.5 23:06:51 10° N 23:12:18 53° ENE 23:12:48 51° E
Cosmos 2219 3.5 23:13:13 51° E 23:13:13 51° E 23:18:18 10° NE
Cosmos 2237 Rocket 2.0 23:08:22 10° NNW 23:14:03 89° WSW 23:14:16 84° SSE
Cosmos 2333 Rocket 3.5 23:17:13 10° NW 23:21:43 28° W 23:21:43 28° W
Timation 2 Rocket 3.7 23:26:06 73° SSW 23:26:46 90° ESE 23:32:50 10° NNE
Meteor 1-12 Rocket 4.3 23:28:45 68° SE 23:29:15 72° E 23:35:17 10° NNE
Cosmos 1975 Rocket 4.2 23:26:57 10° NNW 23:30:20 36° WNW 23:30:20 36° WNW
Cosmos 1300 Rocket 4.1 23:34:20 55° NNE 23:34:20 55° NNE 23:37:46 10° NNE
Cosmos 1674 4.3 23:30:35 10° N 23:33:07 30° NE 23:33:07 30° NE
Cosmos 1634 Rocket 4.4 23:35:14 45° ESE 23:36:10 49° E 23:42:06 10° NNE
Cosmos 1464 Rocket 4.2 23:39:31 51° WSW 23:40:33 57° WNW 23:46:40 10° N
Helios 1B rocket 3.5 23:42:01 10° NNE 23:45:01 39° ENE 23:45:01 39° ENE
Cosmos 1680 Rocket 4.2 23:41:07 10° NNW 23:46:10 47° ENE 23:47:20 40° E
CZ-2D R/B 4.0 23:43:14 10° NE 23:47:10 20° E 23:48:16 19° ESE
Cosmos 1707 4.2 23:44:53 10° NNW 23:47:18 33° NW 23:47:18 33° NW
Okean 2 Rocket 3.5 23:50:15 60° NNW 23:50:15 60° NNW 23:54:10 10° N
Okean 1 Rocket 4.0 23:51:41 40° ENE 23:51:41 40° ENE 23:55:15 10° NNE
Nadezhda 4 Rocket 4.1 23:45:13 10° NNW 23:51:22 57° W 23:52:00 55° WSW
Cosmos 2227 Rocket 2.1 23:51:25 74° SE 23:51:37 75° ESE 23:57:18 10° NNE
Cosmos 1777 Rocket 4.0 23:52:43 74° W 23:52:53 75° WNW 23:58:13 10° NNE
Cosmos 1025 Rocket 3.8 23:50:08 10° NNW 23:53:18 44° NW 23:53:18 44° NW
SJ 16-02 2.6 23:55:08 33° E 23:55:08 33° E 23:58:25 10° NE
